Location: Unspecified
(43.4680°N, 87.1740°E)
Time: 17:58:07
(UTC+00:00)

ISS - Pass Details

Date: 02 October 2021
Orbit: 417 x 423 km, 51.6° (Epoch: 25 October)

Event Time Altitude Azimuth Distance (km) Brightness Sun altitude
Rises 12:51:52 0° 304° (NW) 2,366 1.3 -11.9°
Reaches altitude 10° 12:54:02 10° 311° (NW) 1,501 -0.1 -12.3°
Maximum altitude 12:57:17 44° 25° (NNE) 595 -3.2 -12.9°
Enters shadow 12:58:55 24° 85° (E) 917 -2.6 -13.2°
